軌道要素
Epoch 2008 Sept. 11.0 TT = JDT 2454720.5
T 2008 Sept. 14.76211 TT MPC
q 5.5579756 (2000.0) P Q
n 0.02218493 Peri. 210.45736 -0.81635171 -0.51564478
a 12.5438432 Node 296.25211 +0.57092457 -0.65241837
e 0.5569161 Incl. 16.86237 +0.08726410 -0.55539241
P 44.4
From 392 observations 2003 Oct. 3-2011 May 9, mean residual 0".4.
|